Showing default

ORBCOMM FM 114, 41179

Orbit data source: Space-Track

ORBCOMM FM 114, 41179 is a payload satellite owned by Orbcomm (US) in LEO that was launched on Tue, 22 Dec 2015 UTC via an FALCON 9 launch vehicle from the Air Force Eastern Test Range (AFETR). Payload-class satellites include a variety of spacecraft equipped with specific instruments for various scientific and technological missions. These include communications satellites like Starlink; space stations such as the ISS; scientific satellites like the Hubble; Earth observation satellites from companies like Planet Labs, Umbra, and HawkEye 360; GPS; miniature CubeSats for education and research; and military/defense satellites.

Loading next visibility...
Identifier
41179, 2015-081A
Orbit
LEO
Country
Flag of USUS / ORB
Related business
Manufacturer
SNC Louisville
Mission
Partially operational Commercial Communications
Bus & Motor
SN-100A, Unknown motor
Mass
172 kg wet, 158 kg dry
Launch date (UTC)
2015-12-22 (10 years ago)
Launch vehicle
FALCON 9
Launch site
Air Force Eastern Test Range (AFETR)
Object type
Payload
Rocket body
Debris
Shape & HBR
Box + 1 Pan + 1 Ant, 5.3 m
Radar Cross Section
2.222 m², Medium (>0.1 m² and < 1m²)

Expand to show TLE details & history
Last TLE update: 7 hours ago

TLE from 7 hours ago
0 ORBCOMM FM 114
1 41179U 15081A   26104.90047641  .00000230  00000-0  85084-4 0  9995
2 41179  47.0051 301.2000 0002688 267.9044  92.1534 14.58787153548519
Epoch: 2026-04-14T21:36Z
TLE epoch observation values (Epoch: 2026-04-14T21:36:41.161Z)
Latitude
-0.00004°
Longitude
133.95837°
Altitude
697.381 km
Speed
7.509 km/s
True Right ascension
20h 04m 47s
True Declination
0° 00' 00"
Sunlit
Object was in daylight at epoch
Visualization orbit readout
Latitude
Unknown
Longitude
Unknown
Altitude
Unknown
Speed
Unknown
Apparent Right ascension
Unknown
Apparent Declination
Unknown
Sunlit
N/A
Visualization observer readout
Local Sidereal Time
11:17:34
Azimuth
Unknown
Elevation
Unknown
Doppler factor
Unknown
Orbital elements
Apogee altitude
700.229 km
Perigee altitude
696.425 km
Semi-major axis
7,076.464 km
Eccentricity
0.00027
Inclination
47.0051°
RAAN
301.2°
Arg. of periapsis
267.9044°
True anomaly
92.18418°
Mean anomaly
92.1534°
Eccentric anomaly
92.16879°
Mean motion
3.64602 °/min
Orbital period
98.74 mins
BSTAR
0.000085084
Loading maneuver chart data...
Computing Atmospheric mass density...
Loading historical data...
Loading historical data...
Loading historical data...
Loading historical data...
Loading historical data...
Loading historical data...
Loading historical data...

Documentation

Showing up to 5 results
|